This demonstration page uses our WeatherBlox Daily Observations layout. Learn more.

Left ArrowRight Arrow

40.92501, -98.34201

Hourly Observations for March 16, 2023

Temp ( °F °C ) Dew Point ( °F °C ) Humidity (%) Winds ( mph kmh ) Pressure ( in mb ) Visibility ( mi km ) Precip ( " mm )
12:53 am 00:53 Clear 51 10.6 42 5.6 71 71 S 15 24 29.59 1002 10 16 0.00 0.00
1:53 am 01:53 Clear 50 10 41 5 71 71 S 10 17 29.59 1002 10 16 0.00 0.00
2:53 am 02:53 Mostly Cloudy 50 10 42 5.6 74 74 N 7 11 29.62 1003 10 16 0.00 0.00
3:00 am 03:00 Mostly Cloudy 50 10 42 5.6 74 74 NNE 7 11 29.63 1003 10 16 0.00 0.00
3:09 am 03:09 Mostly Cloudy 50 10 43 6.1 77 77 N 17 28 29.65 1004 10 16 0.00 0.00
3:53 am 03:53 Cloudy 39 3.9 33 0.6 79 79 N 15 24 29.67 1005 10 16 0.00 0.00
4:02 am 04:02 Cloudy 39 3.9 33 0.6 79 79 N 22 35 29.71 1006 10 16 0.00 0.00
4:53 am 04:53 Cloudy 36 2.2 30 -1.1 79 79 N 22 35 29.69 1005 10 16 0.00 0.00
5:53 am 05:53 Cloudy with Light Rain 34 1.1 31 -0.6 88 88 N 20 31 29.70 1006 4 6 0.12 3.05
6:38 am 06:38 Cloudy 33 0.6 30 -1.1 88 88 NNW 22 35 29.79 1009 10 16 0.02 0.51
6:46 am 06:46 Cloudy 33 0.6 29 -1.7 85 85 N 28 44 29.79 1009 10 16 0.02 0.51
6:53 am 06:53 Cloudy 33 0.6 29 -1.7 85 85 N 25 41 29.73 1007 10 16 0.02 0.51
7:07 am 07:07 Cloudy 33 0.6 29 -1.7 85 85 NNW 25 41 29.80 1009 10 16 0.00 0.00
7:53 am 07:53 Cloudy with Light Wintry Mix 32 0 29 -1.7 88 88 NNW 31 50 29.76 1008 10 16 0.01 0.13
8:45 am 08:45 Windy with Snow Likely 30 -1.1 26 -3.3 85 85 NNW 26 43 29.87 1011 2 3 0.01 0.13
8:53 am 08:53 Windy with Snow Likely 30 -1.1 26 -3.3 85 85 NNW 22 35 29.82 1010 3 5 0.01 0.13
9:20 am 09:20 Windy with Snow Likely 30 -1.1 26 -3.3 85 85 NNW 29 46 29.89 1012 6 10 0.01 0.13
9:30 am 09:30 Windy with Snow Likely 30 -1.1 26 -3.3 85 85 NNW 32 52 29.90 1013 4 6 0.01 0.13
9:56 am 09:56 Windy with Snow Likely 30 -1.1 26 -3.3 85 85 NNW 30 48 29.90 1013 3 4 0.01 0.13
10:10 am 10:10 Windy with Snow Likely 30 -1.1 26 -3.3 85 85 NNW 25 41 29.93 1014 2 3 0.01 0.13
10:21 am 10:21 Windy with Snow Likely 30 -1.1 26 -3.3 85 85 NNW 25 41 29.93 1014 3 5 0.01 0.13
10:53 am 10:53 Windy with Snow Likely 31 -0.6 26 -3.3 82 82 NNW 26 43 29.89 1012 3 4 0.01 0.13
11:11 am 11:11 Windy with Snow Likely 31 -0.6 26 -3.3 82 82 NNW 26 43 29.95 1014 4 6 0.01 0.13
11:53 am 11:53 Cloudy 32 0 27 -2.8 81 81 N 29 46 29.90 1012 10 16 0.01 0.13
12:53 pm 12:53 Cloudy 33 0.6 27 -2.8 78 78 N 32 52 29.91 1013 10 16 0.00 0.00
1:53 pm 13:53 Cloudy 34 1.1 26 -3.3 72 72 NNW 37 59 29.93 1014 10 16 0.01 0.13
2:02 pm 14:02 Mostly Cloudy 34 1.1 25 -3.9 69 69 N 32 52 29.97 1015 10 16 0.00 0.00
2:53 pm 14:53 Mostly Sunny 35 1.7 23 -5 61 61 N 35 56 29.95 1014 10 16 0.00 0.00
3:53 pm 15:53 Mostly Sunny 37 2.8 23 -5 56 56 NNW 29 46 29.97 1015 10 16 0.00 0.00
4:53 pm 16:53 Mostly Sunny 38 3.3 22 -5.6 52 52 N 31 50 30.00 1016 10 16 0.00 0.00
5:53 pm 17:53 Sunny 36 2.2 19 -7.2 50 50 N 33 54 30.03 1017 10 16 0.00 0.00
6:53 pm 18:53 Sunny 34 1.1 18 -7.8 51 51 NNW 30 48 30.07 1018 10 16 0.00 0.00
7:53 pm 19:53 Clear 32 0 18 -7.8 56 56 NNW 23 37 30.12 1020 10 16 0.00 0.00
8:53 pm 20:53 Clear 30 -1.1 19 -7.2 63 63 NNW 21 33 30.15 1021 10 16 0.00 0.00
9:53 pm 21:53 Clear 29 -1.7 18 -7.8 63 63 NNW 17 28 30.18 1022 10 16 0.00 0.00
10:53 pm 22:53 Clear 28 -2.2 17 -8.3 63 63 NNW 15 24 30.20 1023 10 16 0.00 0.00
11:53 pm 23:53 Clear 28 -2.2 17 -8.3 63 63 NNW 14 22 30.21 1023 10 16 0.00 0.00

Powered by Vaisala Xweather